This demonstration page uses our WeatherBlox Daily Observations layout. Learn more.

Left ArrowRight Arrow

Hourly Observations for February 16, 2016

Temp ( °F °C ) Dew Point ( °F °C ) Humidity (%) Winds ( mph kmh ) Pressure ( in mb ) Visibility ( mi km ) Precip ( " mm )
12:15 am 00:15 Mostly Cloudy 41 5 34 1.1 76 76 NW 14 22 29.80 1009 10 16 N/A
12:35 am 00:35 Cloudy 42 5.5 34 1.2 74 74 NW 17 28 29.83 1010 10 16 N/A
12:55 am 00:55 Cloudy 40 4.5 34 1 78 78 NW 14 22 29.83 1010 10 16 N/A
1:15 am 01:15 Mostly Cloudy 40 4.3 34 1 79 79 NW 13 20 29.83 1010 10 16 N/A
1:35 am 01:35 Mostly Cloudy 40 4.6 34 1.1 78 78 NW 15 24 29.83 1010 10 16 N/A
1:55 am 01:55 Cloudy 40 4.6 34 1 78 78 NW 14 22 29.83 1010 10 16 N/A
2:15 am 02:15 Partly Cloudy 40 4.5 34 1 78 78 NW 18 30 29.83 1010 10 16 N/A
2:35 am 02:35 Clear 39 4 34 1 81 81 NW 17 28 29.88 1012 10 16 N/A
2:55 am 02:55 Partly Cloudy 39 4.1 33 0.7 79 79 NW 15 24 29.88 1012 10 16 N/A
3:15 am 03:15 Partly Cloudy 39 4.1 33 0.5 78 78 NW 20 31 29.88 1012 10 16 N/A
3:35 am 03:35 Clear 39 4 31 -0.5 73 73 NNW 20 31 29.91 1013 10 16 N/A
3:55 am 03:55 Clear 38 3.6 30 -0.9 73 73 NNW 21 33 29.94 1014 10 16 N/A
4:15 am 04:15 Clear 38 3.5 29 -1.5 70 70 NNW 26 43 29.94 1014 10 16 N/A
4:35 am 04:35 Clear 37 3 29 -1.6 72 72 NNW 18 30 29.97 1015 10 16 N/A
4:55 am 04:55 Clear 37 2.5 29 -1.6 75 75 NNW 16 26 29.97 1015 10 16 N/A
5:15 am 05:15 Clear 36 2.2 29 -1.6 76 76 NNW 16 26 30.03 1017 10 16 N/A
5:35 am 05:35 Clear 36 2.1 29 -1.5 77 77 NNW 14 22 30.03 1017 10 16 N/A
5:55 am 05:55 Clear 35 1.6 29 -1.5 80 80 NW 12 19 30.03 1017 10 16 N/A
6:15 am 06:15 Clear 34 1.1 30 -1.2 85 85 NW 13 20 30.03 1017 10 16 N/A
6:35 am 06:35 Clear 35 1.7 29 -1.8 78 78 NW 16 26 30.06 1018 10 16 N/A
6:55 am 06:55 Clear 35 1.5 28 -2 78 78 NNW 15 24 30.06 1018 10 16 N/A
7:15 am 07:15 Clear 34 1.1 28 -2 80 80 NW 14 22 30.06 1018 10 16 N/A
7:35 am 07:35 Sunny 34 1 28 -2.1 80 80 NNW 9 15 30.09 1019 10 16 N/A
7:55 am 07:55 Sunny 34 1 28 -2.1 80 80 NNW 10 17 30.09 1019 10 16 N/A
8:15 am 08:15 Sunny 34 1 28 -2.1 80 80 NNW 9 15 30.09 1019 10 16 N/A
8:35 am 08:35 Sunny 34 1.1 28 -2 80 80 NNW 10 17 30.09 1019 10 16 N/A
8:55 am 08:55 Sunny 35 1.6 29 -1.7 79 79 NNW 9 15 30.12 1020 10 16 N/A
9:15 am 09:15 Sunny 36 2.2 29 -1.5 77 77 NW 9 15 30.12 1020 10 16 N/A
9:35 am 09:35 Sunny 36 2.2 29 -1.5 77 77 NW 9 15 30.12 1020 10 16 N/A
9:55 am 09:55 Sunny 37 2.9 30 -1.3 74 74 NNW 10 17 30.09 1019 10 16 N/A
10:15 am 10:15 Sunny 37 3 30 -1.1 75 75 NNW 9 15 30.09 1019 10 16 N/A
10:35 am 10:35 Sunny 38 3.6 30 -0.9 73 73 NNW 10 17 30.09 1019 10 16 N/A
10:55 am 10:55 Sunny 39 4.1 31 -0.8 71 71 NNW 9 15 30.09 1019 10 16 N/A
11:15 am 11:15 Sunny 40 4.6 31 -0.6 69 69 NNW 9 15 30.09 1019 10 16 N/A
11:35 am 11:35 Sunny 41 5 31 -0.7 67 67 N 10 17 30.09 1019 10 16 N/A
11:55 am 11:55 Sunny 42 5.6 30 -0.9 63 63 NNW 8 13 30.09 1019 10 16 N/A
12:15 pm 12:15 Sunny 43 6.3 30 -1.3 59 59 NNW 6 9 30.09 1019 10 16 N/A
12:35 pm 12:35 Sunny 43 6.1 28 -2.1 56 56 NNW 7 11 30.09 1019 10 16 N/A
12:55 pm 12:55 Sunny 44 6.4 28 -2.5 53 53 NW 8 13 30.09 1019 10 16 N/A
1:15 pm 13:15 Sunny 44 6.6 28 -2 55 55 NW 6 9 30.06 1018 10 16 N/A
1:35 pm 13:35 Sunny 45 7.2 29 -1.9 53 53 NW 7 11 30.06 1018 10 16 N/A
1:55 pm 13:55 Sunny 46 7.6 29 -1.5 53 53 NW 7 11 30.06 1018 10 16 N/A
2:15 pm 14:15 Sunny 45 7.2 28 -2.1 52 52 WNW 8 13 30.03 1017 10 16 N/A
2:35 pm 14:35 Sunny 45 7.4 28 -2.2 51 51 WNW 8 13 30.03 1017 10 16 N/A
2:55 pm 14:55 Sunny 45 7.3 28 -2 52 52 W 7 11 30.03 1017 10 16 N/A
3:15 pm 15:15 Sunny 46 7.6 27 -2.7 48 48 W 7 11 30.03 1017 10 16 N/A
3:35 pm 15:35 Sunny 45 7.1 27 -2.8 50 50 W 3 6 30.03 1017 10 16 N/A
3:55 pm 15:55 Partly Cloudy 45 7 27 -2.8 50 50 N N/A 30.03 1017 10 16 N/A
4:15 pm 16:15 Mostly Cloudy 45 7 27 -3 49 49 N N/A 30.03 1017 10 16 N/A
4:35 pm 16:35 Cloudy 45 7.4 26 -3.3 47 47 N N/A 30.03 1017 10 16 N/A
4:55 pm 16:55 Cloudy 45 7 28 -2.5 51 51 N N/A 30.03 1017 10 16 N/A
5:15 pm 17:15 Partly Cloudy 44 6.8 29 -1.8 55 55 S 5 7 30.03 1017 10 16 N/A
5:35 pm 17:35 Partly Cloudy 43 6.3 29 -1.8 57 57 N N/A 30.00 1016 10 16 N/A
5:55 pm 17:55 Sunny 42 5.7 29 -1.5 60 60 S 5 7 30.00 1016 10 16 N/A
6:15 pm 18:15 Clear 41 5 30 -1.1 65 65 SSW 3 6 30.03 1017 10 16 N/A
6:35 pm 18:35 Clear 40 4.5 30 -1.3 66 66 SSW 5 7 30.03 1017 10 16 N/A
6:55 pm 18:55 Partly Cloudy 39 4 29 -1.5 68 68 SSW 6 9 30.03 1017 10 16 N/A
7:15 pm 19:15 Clear 38 3.5 29 -1.5 70 70 SSW 5 7 30.03 1017 10 16 N/A
7:35 pm 19:35 Mostly Cloudy 35 1.6 29 -1.9 78 78 S 3 6 30.06 1018 10 16 N/A
7:55 pm 19:55 Cloudy 36 2 29 -1.5 78 78 SSE 6 9 30.06 1018 10 16 N/A
8:15 pm 20:15 Cloudy 35 1.9 29 -1.6 78 78 N N/A 30.06 1018 10 16 N/A
8:35 pm 20:35 Mostly Cloudy 34 1.2 29 -1.5 82 82 S 3 6 30.06 1018 10 16 N/A
8:55 pm 20:55 Partly Cloudy 35 1.5 29 -1.8 79 79 S 6 9 30.06 1018 10 16 N/A
9:15 pm 21:15 Clear 34 1.3 29 -1.9 79 79 S 8 13 30.06 1018 10 16 N/A
9:35 pm 21:35 Clear 39 4 28 -2 65 65 S 9 15 30.03 1017 10 16 N/A
9:55 pm 21:55 Mostly Cloudy 38 3.5 28 -2 68 68 S 9 15 30.03 1017 10 16 N/A
10:15 pm 22:15 Cloudy 39 3.7 28 -2.1 66 66 S 13 20 30.03 1017 10 16 N/A
10:35 pm 22:35 Cloudy 39 4 28 -2.1 65 65 SSW 18 30 30.03 1017 10 16 N/A
10:55 pm 22:55 Cloudy 39 4 28 -2.3 64 64 S 10 17 30.03 1017 10 16 N/A
11:15 pm 23:15 Cloudy 39 4 28 -2.5 63 63 S 14 22 30.03 1017 10 16 N/A
11:35 pm 23:35 Cloudy 39 3.9 28 -2.5 63 63 S 13 20 30.03 1017 10 16 N/A
11:55 pm 23:55 Partly Cloudy 39 3.7 28 -2.5 64 64 S 15 24 30.03 1017 10 16 N/A

Powered by AerisWeather